Date,TemperatureHighF,TemperatureAvgF,TemperatureLowF,DewpointHighF,DewpointAvgF,DewpointLowF,HumidityHigh,HumidityAvg,HumidityLow,PressureMaxIn,PressureMinIn,WindSpeedMaxMPH,WindSpeedAvgMPH,GustSpeedMaxMPH,PrecipitationSumIn
2013-12-1,53.4,37.3,24.1,38.5,31.1,21.9,93,80,56,30.13,29.89,11,1,11,0.00
2013-12-2,51.8,40.8,32.4,41.2,36.2,30.6,94,84,64,29.90,29.69,5,0,6,0.00
2013-12-3,53.4,40.5,32.2,47.1,38.4,31.1,97,92,76,29.82,29.70,9,0,9,0.00
2013-12-4,61.3,47.4,36.9,57.6,45.8,35.8,98,94,82,29.78,29.60,9,1,9,0.00
2013-12-5,58.5,45.6,32.5,57.6,42.7,29.3,99,90,76,30.11,29.66,17,3,17,0.37
2013-12-6,32.7,28.8,27.0,30.0,27.2,26.1,97,94,87,30.35,30.07,12,3,12,0.01
2013-12-7,27.3,22.1,14.4,26.2,19.4,12.0,97,90,76,30.58,30.35,11,2,11,0.00
2013-12-8,31.6,25.4,14.9,30.7,22.9,12.7,97,90,82,30.49,29.97,11,2,11,0.00
2013-12-9,33.4,29.7,24.1,32.4,26.8,19.8,97,89,79,30.21,29.95,14,3,14,0.00
2013-12-10,30.6,22.4,10.9,22.5,18.1,8.6,94,84,61,30.33,30.11,21,2,21,0.00
2013-12-11,37.0,18.7,3.4,25.7,13.0,-0.0,92,79,59,30.51,30.24,17,3,17,0.00
2013-12-12,26.1,15.0,3.7,13.8,7.2,1.0,91,73,42,30.56,30.39,11,2,12,0.00
2013-12-13,40.3,23.0,6.6,31.1,17.6,3.7,94,81,49,30.31,30.10,7,1,8,0.00
2013-12-14,33.4,32.5,31.8,32.4,31.2,30.4,96,95,94,30.11,29.94,3,0,3,0.00
2013-12-15,32.5,29.5,28.0,30.0,24.1,21.7,92,80,68,30.09,29.85,12,5,18,0.00
2013-12-16,36.9,30.6,28.2,32.5,28.3,24.3,95,91,83,30.08,29.97,4,0,5,0.04
2013-12-17,33.6,30.7,28.0,31.1,26.7,25.3,97,85,76,30.14,29.93,13,3,13,0.00
2013-12-18,39.7,28.6,18.0,25.9,20.4,16.2,95,73,42,30.25,30.01,13,2,14,0.00
2013-12-19,55.2,37.6,23.4,41.2,30.7,20.3,92,78,54,30.03,29.88,13,1,13,0.00
2013-12-20,60.6,55.4,50.0,57.7,48.3,39.6,95,78,59,29.89,29.72,16,2,21,0.00
2013-12-21,66.6,60.2,54.7,63.5,58.7,53.6,99,95,87,29.72,29.34,18,2,19,2.51
2013-12-22,61.9,51.1,38.1,61.5,48.2,35.2,99,90,78,29.98,29.41,23,4,23,0.45
2013-12-23,37.9,32.1,26.1,35.1,26.3,20.3,93,79,71,30.36,29.98,18,4,18,0.02
2013-12-24,27.0,18.7,13.8,21.9,13.0,7.7,91,79,64,30.53,30.33,16,3,16,0.00
2013-12-25,33.6,26.5,14.2,27.0,19.4,12.0,93,75,55,30.44,30.16,13,1,13,0.00
2013-12-26,41.2,32.9,24.3,28.4,24.8,21.4,89,73,49,30.32,30.14,13,3,15,0.00
2013-12-27,49.8,30.5,19.6,33.4,25.2,18.1,95,82,52,30.39,30.23,10,1,11,0.00
2013-12-28,52.7,34.0,20.8,35.8,28.1,19.4,95,81,47,30.25,29.95,13,1,13,0.00
2013-12-29,45.0,37.8,33.1,39.9,35.0,29.1,97,90,80,29.99,29.73,18,2,18,0.31
2013-12-30,33.1,27.3,21.9,29.5,21.2,16.3,88,78,64,30.22,29.99,10,3,11,0.00
2013-12-31,35.2,26.9,21.0,22.3,19.2,16.0,91,73,52,30.35,30.13,16,3,16,0.00